Wind_Speed
21 22 23 23 23 23 23 23 23 24 25 24 22 20 22 25 26 24 23 23 23 24 25 25 24 25 26 27 28 29 30 31 32 33 34 35 37 39 41 42 43 45 46 47
19 21 22 22 23 23 24 25 25 25 26 26 23 21 24 25 26 25 24 25 25 25 27 27 27 28 29 30 31 32 32 34 35 36 38 38 40 42 44 46 47 48 49 51
18 19 20 22 23 24 25 26 26 26 26 26 24 18 22 24 25 25 25 26 26 27 28 29 29 30 31 32 34 34 35 37 38 40 41 42 44 45 47 49 50 52 53 54
17 18 20 21 23 24 25 27 27 27 27 25 25 21 20 22 25 25 26 27 28 29 30 31 32 33 34 35 36 37 38 40 41 43 44 46 47 48 50 52 53 55 56 57
18 18 20 21 23 25 26 27 27 27 26 25 25 24 21 22 24 26 27 28 30 31 32 33 34 35 36 37 38 40 41 43 44 46 47 49 50 52 54 55 56 57 58 58
19 20 21 22 24 26 27 28 28 28 27 25 25 24 23 23 24 25 27 29 30 32 34 36 37 38 39 40 41 42 44 45 47 48 50 51 53 54 56 56 57 58 59 59
20 21 23 23 25 26 28 29 31 30 28 27 25 25 24 26 26 27 29 30 32 33 35 37 38 40 41 43 44 45 46 47 49 50 52 53 55 56 57 58 59 60 60 60
21 22 23 24 25 26 28 29 31 33 32 30 27 25 25 28 28 30 31 32 34 34 36 37 39 41 43 44 45 47 48 49 50 52 53 54 56 57 58 59 60 60 61 62
23 23 24 25 26 28 29 30 32 34 36 35 32 28 25 28 30 32 35 36 36 36 37 39 40 42 43 45 46 47 49 50 51 52 53 55 56 57 58 59 60 60 61 62
26 26 25 26 27 29 30 32 34 35 38 40 38 33 30 31 32 34 37 39 39 39 40 41 42 43 45 46 47 49 50 51 52 53 54 55 56 57 58 59 60 61 62 63
29 29 28 28 29 31 32 33 35 37 39 41 44 40 34 35 36 39 41 42 42 42 42 42 43 44 46 47 48 49 50 51 52 53 54 55 56 57 58 59 61 62 62 63
31 32 31 31 31 33 34 35 36 38 40 42 46 45 36 38 43 46 47 46 45 45 45 45 45 46 47 48 48 49 50 50 51 52 53 54 55 57 58 59 60 61 62 63
33 34 35 34 33 36 37 37 37 40 42 44 47 46 41 43 47 49 49 49 48 48 48 48 48 48 49 49 49 49 50 50 51 52 53 54 55 55 56 57 58 59 61 62
35 35 36 37 36 39 40 38 39 41 43 46 46 46 43 45 49 49 49 49 49 50 50 50 50 50 50 50 49 49 50 50 51 51 52 53 54 54 55 56 57 58 59 60
37 37 37 37 37 39 40 39 38 41 42 46 45 46 46 48 49 50 50 50 50 51 51 51 51 50 50 49 49 49 50 50 50 51 51 52 53 54 55 56 57 57 57 57
36 37 38 37 36 38 39 36 37 40 41 43 44 44 45 48 48 49 49 50 50 50 50 49 49 49 49 49 48 48 49 50 51 51 52 53 54 55 55 56 56 56 55 55
34 36 38 38 37 38 36 35 37 38 39 41 42 44 45 46 46 46 47 48 48 47 47 46 47 47 47 48 48 48 49 50 51 52 53 53 53 54 54 54 53 53 53 54
35 35 38 39 39 39 36 35 37 38 39 40 41 42 43 44 44 45 46 46 46 45 46 46 47 47 48 49 49 49 50 50 51 51 51 51 52 52 52 52 52 52 52 52
33 35 37 39 40 39 35 37 39 41 41 42 43 43 44 44 44 45 46 46 46 46 47 48 48 49 48 49 49 49 50 50 51 50 50 51 51 51 51 51 51 51 51 51
32 33 35 37 40 41 40 42 44 45 46 45 46 46 46 46 47 46 47 47 47 48 49 49 49 49 49 49 49 50 50 51 50 50 50 50 51 51 51 51 51 51 51 51
35 37 38 40 43 43 44 46 47 48 49 49 49 49 50 50 51 50 51 51 50 50 50 50 50 51 50 50 50 50 51 50 50 50 51 51 51 51 51 51 52 52 53 53
38 40 41 43 45 45 47 49 50 52 52 53 53 53 53 54 54 54 54 54 53 53 53 53 53 52 52 51 51 52 52 52 51 51 51 51 52 52 53 54 55 55 55 55
43 43 44 47 48 48 50 53 54 56 56 56 56 57 57 58 57 57 57 57 56 56 56 55 54 53 53 53 53 54 53 53 52 51 52 52 53 54 55 56 57 56 56 56
48 47 48 51 50 51 54 56 57 58 59 59 60 61 61 61 61 61 60 59 58 58 57 56 55 54 54 54 55 55 55 54 54 53 54 55 56 56 57 57 58 58 58 57
52 51 53 55 55 57 58 59 60 61 62 63 63 64 64 64 63 63 62 61 60 58 57 56 56 55 55 55 56 56 56 55 55 56 56 57 57 58 58 58 59 59 58 58
53 54 58 60 60 63 63 64 65 66 66 66 66 66 66 65 65 64 62 61 60 58 57 56 56 56 56 56 56 56 56 56 57 57 57 57 57 58 58 59 59 59 58 57
Wind_Direction
273 276 279 283 287 290 292 294 296 296 297 298 299 297 285 281 282 279 276 273 271 270 271 274 274 275 276 278 279 280 281 283 285 287 289 291 293 294 296 297 298 299 300 301
275 278 281 285 289 292 294 295 297 298 299 300 300 301 291 284 282 280 276 274 271 270 271 272 273 274 275 277 278 280 281 283 285 287 289 291 292 294 295 296 297 298 299 300
280 282 285 289 292 294 297 298 300 301 302 303 302 301 293 287 284 281 278 275 273 272 272 272 273 274 275 276 277 279 281 283 286 287 289 291 292 294 295 295 297 298 298 299
286 288 290 293 295 296 299 299 302 304 305 307 305 306 297 291 287 283 279 277 275 274 273 273 274 274 275 277 279 280 282 284 286 288 290 291 293 294 294 295 296 297 297 298
291 292 295 297 298 299 300 301 303 304 306 308 307 306 302 294 289 285 282 279 277 275 275 274 275 276 277 279 280 282 284 286 287 289 291 292 293 293 293 295 295 296 296 297
294 296 298 299 300 301 302 302 303 304 306 307 308 308 306 299 293 289 285 282 280 278 278 278 279 280 280 282 283 285 286 287 288 290 291 292 292 292 293 294 294 295 295 296
295 297 299 300 301 302 303 305 305 306 307 309 311 312 312 306 300 294 290 286 284 282 282 283 284 285 285 286 287 288 289 290 290 291 292 292 292 293 294 294 294 294 294 295
295 298 299 300 301 302 303 305 306 307 308 309 311 312 314 307 302 297 293 290 288 288 288 289 289 289 290 290 291 291 291 292 292 292 292 292 292 293 294 294 294 294 294 294
296 297 299 300 301 302 303 304 305 305 305 306 306 309 312 308 303 299 296 294 294 294 293 292 291 292 292 292 291 292 292 292 291 291 291 292 292 293 293 293 294 294 293 293
295 296 298 299 300 301 302 304 305 306 307 307 306 309 317 308 303 298 296 296 297 296 295 294 294 294 293 293 292 292 292 292 292 292 292 292 293 293 293 293 293 293 294 294
294 296 297 298 300 301 301 302 303 304 304 305 306 308 317 309 304 298 297 298 298 297 296 295 294 294 294 294 294 294 293 293 292 292 293 293 293 292 292 293 293 294 294 294
294 296 297 298 299 299 299 301 303 303 304 304 303 306 313 307 301 299 300 302 301 301 300 298 298 297 297 296 296 295 294 294 293 293 293 293 293 293 293 293 294 295 296 296
293 295 297 298 299 298 299 302 303 302 302 302 302 306 309 305 301 301 303 303 303 302 301 301 300 300 299 298 297 297 296 296 295 295 295 294 294 294 294 295 296 297 297 298
293 295 297 299 301 299 299 301 302 301 301 300 302 305 305 302 300 302 302 303 302 302 301 301 301 300 300 299 298 298 298 297 297 297 297 296 296 296 296 297 297 298 298 299
293 294 296 297 298 298 299 303 304 301 301 301 304 304 305 302 302 303 303 303 302 302 302 302 302 301 300 300 299 299 299 298 298 298 298 297 297 297 297 297 297 297 298 298
292 294 295 297 297 296 299 304 301 300 301 301 302 303 301 302 303 304 304 304 303 303 303 303 303 302 302 301 300 300 299 299 298 298 297 297 297 298 298 298 298 298 298 298
293 295 295 297 297 297 301 303 301 300 300 301 302 303 303 304 306 306 305 305 305 305 304 304 304 304 303 303 302 301 300 299 299 298 298 297 297 298 298 298 298 298 299 299
295 296 297 299 300 301 306 305 302 302 303 303 303 304 306 307 308 307 307 307 307 307 307 306 306 305 304 303 302 301 300 299 299 299 298 298 298 298 299 299 299 299 299 299
294 295 296 299 300 302 305 304 303 304 304 304 305 307 308 308 309 309 310 309 309 308 307 306 305 304 304 302 302 301 300 300 300 300 299 299 299 299 299 300 300 300 300 300
293 294 296 299 299 303 307 304 304 304 303 305 306 307 308 308 308 309 309 308 307 307 306 305 304 304 303 303 302 302 302 301 301 300 299 299 300 300 300 300 300 300 301 300
295 296 297 298 299 302 303 302 302 302 304 305 306 306 306 307 307 307 306 306 306 305 304 304 303 303 303 302 301 301 302 302 301 301 300 300 300 300 300 300 300 300 300 300
295 295 297 297 299 301 300 300 300 300 302 303 303 304 304 304 305 305 305 304 304 303 303 302 302 302 302 301 301 302 302 302 302 301 301 300 300 300 300 300 300 300 300 300
292 294 295 296 297 298 297 297 298 299 300 300 301 301 301 302 302 303 303 303 302 302 301 301 301 302 301 300 301 301 301 301 302 301 301 300 300 301 301 301 301 300 299 299
291 293 294 293 293 292 292 293 295 296 297 297 298 299 299 300 300 301 301 301 301 301 301 301 300 301 301 300 300 301 301 302 302 301 301 301 301 301 301 301 301 300 300 299
293 294 292 290 291 290 291 292 293 293 294 295 296 297 297 298 298 299 300 300 300 300 300 300 300 300 300 300 300 301 302 302 302 302 302 302 302 302 302 302 302 301 300 299
294 293 290 289 290 290 291 292 292 293 293 294 294 295 296 296 297 298 298 298 299 299 299 299 299 299 300 300 301 301 302 302 303 303 303 303 303 303 303 303 302 301 300 299
Height
5858 5858 5857 5856 5855 5853 5851 5850 5849 5846 5844 5842 5841 5839 5836 5832 5830 5829 5828 5826 5825 5824 5822 5821 5819 5818 5816 5814 5812 5810 5808 5805 5802 5800 5796 5794 5790 5786 5782 5777 5773 5768 5764 5759
5855 5854 5852 5851 5850 5848 5846 5845 5844 5842 5839 5837 5836 5835 5829 5826 5824 5823 5822 5820 5818 5817 5815 5814 5812 5811 5809 5807 5804 5802 5800 5797 5794 5791 5788 5785 5781 5777 5772 5767 5762 5758 5753 5748
5850 5850 5848 5846 5845 5843 5842 5839 5838 5836 5834 5832 5831 5831 5825 5821 5818 5817 5815 5813 5812 5810 5808 5807 5805 5803 5801 5798 5796 5794 5791 5788 5785 5781 5778 5775 5771 5767 5762 5756 5752 5747 5741 5736
5846 5845 5844 5842 5840 5838 5837 5834 5832 5830 5828 5826 5824 5823 5821 5816 5812 5810 5809 5807 5805 5803 5801 5799 5797 5795 5793 5790 5788 5785 5782 5779 5775 5771 5768 5764 5760 5756 5751 5745 5740 5735 5729 5723
5841 5841 5839 5837 5835 5833 5831 5829 5827 5825 5823 5821 5818 5817 5815 5811 5807 5804 5802 5800 5798 5796 5794 5791 5789 5787 5784 5782 5779 5776 5773 5769 5765 5761 5757 5753 5749 5744 5738 5733 5728 5722 5716 5710
5837 5835 5834 5833 5830 5828 5825 5823 5821 5819 5818 5817 5813 5811 5808 5805 5801 5798 5795 5793 5790 5788 5786 5783 5781 5778 5776 5773 5770 5766 5763 5759 5755 5750 5746 5741 5737 5731 5726 5720 5714 5708 5702 5697
5833 5831 5829 5827 5825 5823 5820 5818 5815 5813 5811 5810 5807 5804 5802 5797 5794 5790 5788 5785 5782 5780 5778 5775 5773 5770 5767 5764 5760 5756 5753 5748 5744 5739 5734 5729 5723 5717 5712 5706 5700 5694 5688 5682
5828 5827 5824 5822 5820 5817 5815 5812 5809 5806 5803 5802 5801 5799 5797 5791 5786 5782 5779 5777 5774 5773 5770 5767 5764 5761 5757 5754 5750 5746 5741 5737 5731 5726 5721 5716 5710 5704 5698 5692 5685 5679 5673 5667
5822 5822 5819 5817 5814 5811 5809 5806 5803 5799 5795 5794 5793 5793 5792 5785 5780 5775 5771 5768 5766 5764 5761 5758 5754 5750 5746 5742 5738 5734 5729 5724 5718 5713 5707 5702 5696 5689 5683 5677 5670 5664 5658 5651
5815 5815 5814 5811 5809 5805 5803 5799 5796 5792 5787 5783 5782 5783 5784 5777 5772 5767 5763 5759 5757 5755 5751 5748 5744 5739 5735 5730 5726 5721 5716 5710 5705 5699 5693 5687 5681 5674 5668 5661 5655 5648 5642 5635
5808 5808 5807 5805 5802 5799 5797 5794 5789 5785 5781 5776 5771 5775 5775 5767 5761 5757 5753 5750 5747 5745 5741 5737 5733 5728 5723 5718 5713 5708 5702 5696 5690 5684 5678 5672 5666 5659 5652 5646 5639 5632 5626 5619
5801 5800 5799 5798 5795 5791 5788 5786 5783 5779 5774 5768 5762 5765 5765 5758 5750 5745 5741 5739 5735 5731 5728 5723 5719 5715 5710 5704 5699 5693 5687 5681 5675 5669 5663 5657 5650 5643 5637 5631 5624 5617 5611 5604
5794 5792 5790 5789 5789 5784 5780 5778 5774 5770 5765 5760 5754 5755 5753 5746 5738 5733 5729 5725 5722 5718 5713 5709 5705 5700 5695 5689 5684 5678 5672 5666 5660 5654 5648 5642 5635 5628 5622 5615 5609 5602 5595 5588
5785 5784 5783 5781 5778 5773 5770 5769 5766 5761 5756 5750 5746 5743 5742 5735 5727 5723 5718 5713 5709 5705 5700 5695 5691 5686 5680 5675 5669 5663 5657 5651 5645 5639 5633 5626 5620 5613 5607 5601 5594 5587 5580 5573
5776 5775 5773 5771 5769 5764 5761 5760 5756 5750 5746 5740 5737 5732 5728 5721 5716 5711 5706 5702 5697 5692 5687 5681 5676 5671 5666 5660 5655 5649 5643 5637 5630 5624 5618 5612 5605 5599 5592 5586 5579 5572 5565 5558
5768 5765 5763 5762 5759 5754 5752 5751 5746 5741 5736 5731 5726 5722 5717 5710 5705 5700 5695 5689 5684 5679 5673 5668 5662 5657 5651 5646 5640 5635 5629 5622 5616 5610 5604 5597 5591 5584 5577 5570 5563 5556 5550 5543
5760 5757 5753 5751 5749 5745 5744 5742 5736 5731 5727 5722 5717 5712 5705 5700 5695 5689 5683 5678 5672 5666 5661 5655 5650 5644 5638 5632 5626 5621 5615 5608 5602 5596 5589 5582 5576 5569 5562 5555 5548 5541 5535 5528
5751 5747 5743 5740 5738 5735 5737 5730 5725 5721 5717 5712 5707 5702 5696 5690 5685 5678 5672 5666 5660 5654 5649 5643 5637 5631 5625 5619 5613 5607 5600 5594 5587 5581 5574 5568 5561 5554 5548 5541 5534 5527 5520 5513
5743 5739 5734 5731 5727 5725 5726 5721 5714 5710 5707 5701 5696 5691 5686 5680 5674 5668 5661 5655 5648 5643 5636 5630 5624 5618 5612 5606 5600 5593 5587 5580 5573 5567 5560 5553 5547 5540 5534 5527 5520 5513 5506 5499
5734 5731 5728 5723 5717 5715 5716 5709 5702 5699 5695 5690 5685 5679 5674 5668 5663 5659 5650 5644 5637 5631 5624 5618 5611 5605 5599 5592 5586 5579 5573 5566 5559 5553 5546 5539 5533 5526 5519 5513 5506 5499 5492 5485
5724 5721 5718 5713 5707 5706 5703 5697 5692 5688 5684 5678 5672 5667 5662 5656 5650 5645 5638 5632 5625 5619 5612 5605 5599 5592 5585 5579 5572 5566 5559 5552 5546 5539 5532 5525 5518 5511 5505 5498 5491 5484 5477 5470
5714 5710 5708 5703 5699 5698 5690 5685 5680 5676 5670 5665 5660 5655 5649 5644 5638 5631 5625 5619 5612 5606 5599 5592 5586 5579 5571 5564 5558 5553 5546 5539 5532 5525 5518 5510 5503 5497 5490 5483 5476 5469 5461 5455
5703 5701 5697 5693 5691 5685 5677 5671 5666 5661 5657 5652 5647 5642 5635 5630 5624 5618 5612 5605 5599 5592 5585 5579 5572 5566 5558 5551 5544 5538 5532 5525 5518 5511 5503 5496 5489 5481 5474 5467 5460 5452 5445 5438
5691 5689 5685 5680 5677 5671 5664 5658 5653 5648 5643 5638 5632 5627 5621 5615 5609 5603 5597 5591 5584 5578 5571 5565 5558 5552 5545 5537 5529 5523 5517 5510 5504 5496 5489 5481 5474 5466 5458 5450 5443 5436 5429 5422
5678 5675 5669 5665 5662 5656 5651 5645 5640 5634 5629 5623 5617 5611 5605 5600 5594 5588 5582 5576 5569 5563 5556 5550 5544 5537 5531 5523 5516 5508 5502 5495 5489 5481 5473 5465 5458 5450 5442 5435 5426 5419 5412 5404
5664 5658 5651 5648 5645 5639 5636 5629 5623 5618 5613 5607 5601 5596 5589 5583 5578 5572 5566 5559 5553 5548 5542 5536 5529 5522 5515 5508 5501 5494 5487 5480 5473 5466 5458 5450 5442 5434 5426 5418 5411 5402 5395 5388